SCP
1 0 0 0 0 0 0 0 0 0 0 0 0 0 0 0 0 0 0 0 0 0 0 0 0 0 0 0 0 0 0 0 0 0 0 0 0 0 0 0 0 0 0 0
0 0 0 0 0 0 0 0 0 0 0 0 0 0 0 0 0 0 0 0 0 0 0 0 0 0 0 0 0 0 0 0 0 0 0 0 0 0 0 0 0 0 0 0
0 0 0 0 0 0 0 0 0 0 0 0 0 0 0 0 0 0 0 0 0 0 0 0 0 0 0 0 0 0 0 0 0 0 0 0 0 0 0 0 0 0 0 0
0 0 0 0 0 0 0 0 0 0 0 0 0 0 0 0 0 0 0 0 0 0 0 0 0 0 0 0 0 0 0 0 0 0 0 0 0 0 0 0 0 0 0 0
0 0 0 0 0 0 0 0 0 0 0 0 0 0 0 0 0 0 0 0 0 0 0 0 0 0 0 0 0 0 0 0 0 0 0 0 0 0 0 0 0 0 0 0
0 0 0 0 0 0 0 0 0 0 0 0 0 0 0 0 0 0 0 0 0 0 0 0 0 0 0 0 0 0 0 0 0 0 0 0 0 0 0 0 0 0 0 0
0 0 0 0 0 0 0 0 0 0 0 0 0 0 0 0 0 0 0 0 0 0 0 0 0 0 0 0 0 0 0 0 0 0 0 0 0 0 0 0 0 0 0 0
0 0 0 0 0 0 0 0 0 0 0 0 0 0 0 0 0 0 0 0 0 0 0 0 0 0 0 0 0 0 0 0 0 0 0 0 0 0 0 0 0 0 0 0
0 0 0 0 0 0 0 0 0 0 0 0 0 0 0 0 0 0 0 0 0 0 0 0 0 0 0 0 0 0 0 0 0 0 0 0 0 0 0 0 0 0 0 0
0 0 0 0 0 0 0 0 0 0 0 0 0 0 0 0 0 0 0 0 0 1 1 0 0 0 0 0 0 0 0 0 0 0 0 0 0 0 0 0 0 0 0 0
0 0 0 0 0 0 0 0 0 0 0 0 0 0 0 0 0 0 0 0 0 1 1 0 1 1 0 0 0 0 0 0 0 0 0 0 0 0 0 0 0 0 0 0
0 0 0 0 0 0 0 0 0 0 0 0 0 0 0 0 0 0 0 0 0 0 1 1 1 1 1 0 0 0 0 0 0 0 0 0 0 0 0 0 0 0 0 0
0 0 0 0 0 0 0 0 0 0 0 0 0 0 0 0 0 0 0 0 0 0 1 1 1 1 1 1 0 0 0 0 0 0 0 0 0 0 0 0 0 0 0 0
0 0 0 0 0 0 0 0 0 0 0 0 0 0 0 0 0 0 0 0 0 0 0 1 1 1 1 1 0 0 0 0 0 0 0 0 0 0 0 0 0 0 0 0
0 0 0 0 0 0 0 0 0 0 0 0 0 0 0 0 0 0 0 0 0 0 0 0 1 1 1 1 1 0 0 0 0 0 0 0 0 0 0 0 0 0 0 0
0 0 0 0 0 0 0 0 0 0 0 0 0 0 0 0 0 0 0 0 0 0 0 0 0 1 1 1 1 1 0 0 0 0 0 0 0 0 0 0 0 0 0 0
0 0 0 0 0 0 0 0 0 0 0 0 0 0 0 0 0 0 0 0 0 0 0 0 0 1 1 1 1 0 0 0 0 0 0 0 0 0 0 0 0 0 0 0
0 0 0 0 0 0 0 0 0 0 0 0 0 0 0 0 0 0 0 0 0 0 0 0 0 0 0 0 0 0 0 0 0 0 0 0 0 0 0 0 0 0 0 0
0 0 0 0 0 0 0 0 0 0 0 0 0 0 0 0 0 0 0 0 0 0 0 0 0 0 0 0 0 0 0 0 0 0 0 0 0 0 0 0 0 0 0 0
0 0 0 0 0 0 0 0 0 0 0 0 0 0 0 0 0 0 0 0 0 0 0 0 0 0 0 0 0 0 0 0 0 0 0 0 0 0 0 0 0 0 0 0
0 0 0 0 0 0 0 0 0 0 0 0 0 0 0 0 0 0 0 0 0 0 0 0 0 0 0 0 0 0 0 0 0 0 0 0 0 0 0 0 0 0 0 0
0 0 0 0 0 0 0 0 0 0 0 0 0 0 0 0 0 0 0 0 0 0 0 0 0 0 0 0 0 0 0 0 0 0 0 0 0 0 0 0 0 0 0 0
0 0 0 0 0 0 0 0 0 0 0 0 0 0 0 0 0 0 0 0 0 0 0 0 0 0 0 0 0 0 0 0 0 0 0 0 0 0 0 0 0 0 0 0
0 0 0 0 0 0 0 0 0 0 0 0 0 0 0 0 0 0 0 0 0 0 0 0 0 0 0 0 0 0 0 0 0 0 0 0 0 0 0 0 0 0 0 0
0 0 0 0 0 0 0 0 0 0 0 0 0 0 0 0 0 0 0 0 0 0 0 0 0 0 0 0 0 0 0 0 0 0 0 0 0 0 0 0 0 0 0 0
0 0 0 0 0 0 0 0 0 0 0 0 0 0 0 0 0 0 0 0 0 0 0 0 0 0 0 0 0 0 0 0 0 0 0 0 0 0 0 0 0 0 0 0
Wind_Speed
4 5 6 6 4 4 5 6 7 5 4 5 7 7 8 8 8 8 8 8 8 8 8 8 7 7 7 7 7 7 6 6 4 3 2 3 3 3 4 4 6 5 6 6
6 5 4 5 5 6 6 7 7 6 4 4 7 6 6 7 7 6 7 8 8 9 9 8 8 7 7 7 7 7 6 5 4 3 3 2 3 3 4 3 4 5 6 6
5 4 5 7 8 8 7 7 7 7 6 5 6 6 7 6 6 5 5 6 7 8 9 10 8 8 8 7 7 6 6 6 5 5 3 3 3 2 3 3 3 5 5 6
3 4 6 7 7 7 6 5 6 7 7 5 6 5 8 9 9 9 8 8 8 8 9 9 8 8 8 7 6 7 7 6 6 5 3 3 2 3 4 3 3 3 4 5
5 6 6 6 5 4 4 5 5 5 4 4 6 5 7 10 11 11 10 10 9 9 9 9 8 8 7 7 7 6 7 7 6 5 4 3 3 3 3 3 4 3 4 5
4 3 3 3 3 4 7 7 5 2 3 6 7 6 6 9 11 11 11 11 10 9 9 8 8 7 7 7 7 7 7 7 6 5 4 3 4 3 3 3 3 2 3 3
7 6 4 4 6 5 7 7 5 5 5 5 5 6 5 7 8 9 11 12 11 10 10 10 10 9 9 9 8 8 8 7 6 5 5 4 3 3 3 2 3 2 3 3
7 8 9 7 6 8 9 8 5 5 5 5 6 7 3 5 5 7 9 10 11 11 10 10 10 10 10 10 9 9 9 8 7 6 5 4 4 2 2 2 2 3 3 3
5 6 7 5 4 7 9 7 4 3 3 4 6 5 4 6 8 9 11 12 12 11 11 10 10 10 10 10 10 9 9 8 7 7 6 5 4 3 3 3 3 2 3 3
3 5 7 6 5 2 4 5 5 6 5 5 6 7 6 11 13 13 13 13 13 12 12 11 10 10 10 9 9 9 8 9 8 7 5 4 4 4 3 2 3 3 3 3
4 5 6 7 8 9 8 7 5 4 4 4 4 3 3 7 11 14 14 14 14 14 13 12 11 10 10 10 9 9 9 8 8 7 6 6 5 4 4 3 3 2 2 2
4 3 5 6 2 3 7 8 9 6 5 5 4 1 4 5 8 11 13 13 13 13 12 12 11 11 10 10 10 10 9 8 7 7 6 6 5 5 4 3 3 2 3 3
6 5 5 6 5 6 7 9 10 8 5 6 6 2 5 5 7 10 12 13 12 13 13 12 12 11 11 10 10 9 9 8 8 7 7 7 6 5 4 4 3 3 3 3
5 5 5 5 3 7 9 10 11 11 8 8 9 7 5 7 8 9 11 13 13 13 13 13 12 11 11 11 10 10 9 9 8 8 7 7 6 5 5 4 3 3 3 2
6 6 6 6 3 5 8 11 13 14 13 10 8 9 8 8 8 9 11 12 13 14 14 14 13 12 12 12 11 10 10 9 9 9 8 7 6 6 5 5 4 3 3 2
7 6 6 7 6 7 8 10 13 14 13 13 12 12 8 6 7 10 12 14 15 15 15 15 15 14 14 14 13 12 11 10 10 9 8 7 7 6 5 5 4 4 3 2
8 7 6 5 5 6 9 12 14 13 13 12 13 11 7 8 10 11 13 15 16 16 16 16 16 15 14 14 13 13 12 11 10 10 9 8 8 7 6 5 5 4 3 3
8 8 5 4 6 9 4 2 8 12 13 13 13 10 8 8 8 9 11 14 15 15 16 15 15 14 14 13 13 12 12 12 11 10 9 9 8 7 6 5 4 4 3 3
6 6 5 5 6 7 5 4 6 8 10 10 13 11 9 4 5 8 11 14 14 15 14 14 14 14 14 14 14 14 13 12 11 11 10 10 9 8 7 6 5 4 3 3
5 6 6 6 7 6 3 1 3 6 7 5 8 9 8 9 7 6 9 12 12 12 12 12 13 14 14 14 14 14 13 13 12 11 10 9 9 8 7 7 5 4 4 3
7 6 8 9 9 7 2 3 6 7 2 1 4 6 10 10 6 2 7 9 11 12 12 13 14 14 14 15 15 14 13 13 11 10 10 9 9 8 7 6 5 5 4 3
8 7 8 7 8 7 3 6 6 4 4 2 2 4 7 7 3 4 6 8 10 12 13 14 13 13 13 14 15 14 13 11 11 11 10 9 9 8 7 6 5 5 4 4
7 6 4 6 4 3 3 4 3 5 6 4 3 3 5 5 5 5 6 8 10 12 12 13 13 13 13 14 14 14 12 12 12 11 11 10 9 8 7 7 6 5 4 4
5 2 5 6 6 4 4 6 6 6 7 6 5 4 5 6 5 6 7 8 9 11 12 12 13 14 13 14 13 12 12 13 13 12 11 10 9 9 8 6 5 5 5 4
3 6 6 7 6 5 4 4 5 5 5 5 4 4 5 5 5 6 7 8 9 10 11 12 13 13 14 14 13 12 13 13 13 12 11 10 9 8 7 7 5 6 5 4
5 6 6 6 4 5 4 3 4 4 4 4 3 3 4 5 5 6 6 7 8 9 10 11 12 12 13 13 13 12 12 13 13 11 11 8 8 7 7 6 6 5 6 5
Wind_Direction
175 184 175 166 169 142 144 156 142 123 144 162 149 147 156 166 173 172 170 168 163 154 145 144 148 150 153 150 144 139 142 137 136 128 119 105 93 81 72 58 47 38 32 29
169 172 159 147 148 150 151 150 140 123 135 155 146 149 159 174 179 181 181 173 164 158 151 148 154 155 158 154 152 148 146 141 134 114 101 95 88 79 70 64 59 39 35 30
176 133 157 165 157 159 164 170 156 140 137 152 157 162 176 178 184 185 193 189 174 169 163 157 158 155 158 157 158 152 149 143 136 130 120 124 120 125 106 80 59 39 36 37
160 144 164 168 169 174 165 173 161 158 173 164 198 175 183 185 190 194 193 190 184 174 168 162 162 159 159 156 157 155 150 142 137 141 137 125 110 90 74 63 67 66 52 45
151 166 173 174 168 170 134 157 165 176 189 176 201 204 172 182 194 194 191 190 184 176 170 166 165 161 156 153 153 152 145 138 136 134 124 132 105 91 89 82 77 67 65 50
131 158 195 173 139 149 144 143 136 175 209 204 199 218 182 186 195 187 185 185 180 175 168 164 158 158 153 150 152 152 147 138 138 140 137 127 108 104 97 82 70 71 75 60
153 159 161 163 141 152 182 167 165 184 202 199 180 227 211 181 190 191 183 180 177 173 169 164 161 162 158 157 157 156 153 147 148 150 143 130 122 120 104 87 79 61 69 63
171 169 177 188 190 177 195 208 204 191 190 164 188 223 185 158 181 189 182 177 173 172 171 168 166 164 161 160 160 160 157 152 152 153 142 133 127 119 94 78 73 70 61 57
185 151 156 175 188 184 188 210 261 259 185 190 194 207 198 179 186 184 179 177 177 173 171 168 166 166 163 162 163 163 160 156 156 152 142 135 127 120 108 101 85 73 71 64
181 151 155 159 160 171 214 187 205 219 198 204 202 212 198 181 189 185 184 183 177 172 170 167 167 167 163 161 161 162 162 158 156 154 145 134 134 127 116 105 90 80 73 65
205 173 160 178 201 181 176 195 219 229 246 238 202 190 181 193 189 186 187 184 177 174 171 167 165 163 160 159 161 160 162 160 157 158 150 147 141 136 133 115 98 87 76 76
199 207 179 184 172 232 218 216 214 222 208 247 254 160 125 182 191 191 187 181 177 173 170 166 164 162 163 164 165 163 164 160 158 158 154 150 144 147 143 127 118 105 88 76
176 202 177 169 183 195 217 221 227 240 240 229 237 188 139 173 184 188 187 180 174 171 169 167 167 168 167 167 166 164 163 159 155 157 156 155 154 148 141 130 119 110 100 92
200 218 228 219 192 185 204 208 215 222 231 230 236 248 218 206 196 188 184 182 177 174 173 172 173 172 171 169 168 165 162 159 157 158 159 157 151 147 143 131 127 120 109 99
216 232 231 247 242 216 226 218 212 224 239 251 255 249 242 225 209 195 184 180 178 178 179 178 177 174 173 171 170 165 163 163 162 161 161 157 151 145 141 136 134 122 110 101
219 240 231 229 223 232 241 234 227 231 241 249 258 258 254 233 205 193 187 183 186 186 186 182 181 177 177 175 172 167 166 166 166 165 160 152 154 148 147 144 138 129 122 109
199 221 227 227 204 227 242 233 226 227 229 235 242 248 226 209 204 201 193 190 192 190 188 186 184 182 181 178 173 170 168 165 168 164 159 160 160 157 157 151 146 147 145 128
212 217 231 240 211 236 252 222 229 234 240 236 244 248 229 225 213 206 199 195 194 191 189 188 185 180 179 173 170 167 165 168 168 165 164 164 165 162 160 158 158 167 158 144
233 218 228 239 244 258 257 219 211 225 248 240 236 237 231 214 203 214 204 203 200 193 188 185 182 176 174 172 169 168 169 170 171 170 171 170 170 166 165 166 169 168 166 167
203 224 234 236 251 256 261 127 195 230 252 242 225 222 201 181 211 215 187 194 194 186 181 178 174 173 173 170 169 172 173 174 175 174 174 172 171 170 172 173 173 169 176 184
181 203 227 238 251 262 301 128 181 223 281 21 210 203 189 201 224 163 162 180 183 177 175 171 171 174 173 168 170 176 176 179 173 169 170 171 172 174 173 173 175 179 183 191
208 207 218 228 240 252 138 166 213 299 351 333 251 212 204 215 202 158 159 166 172 171 170 170 172 172 170 171 174 178 180 173 165 166 169 173 173 174 172 175 182 187 189 199
224 233 231 229 253 10 163 229 297 323 308 312 299 256 224 218 204 182 170 167 171 171 170 172 173 169 170 175 179 179 174 168 166 168 174 177 177 178 180 182 186 192 198 213
199 209 225 237 255 270 270 269 277 278 281 289 286 270 228 218 200 183 174 170 171 173 172 173 173 173 174 177 182 181 170 170 171 174 178 181 183 184 187 192 197 201 206 214
205 187 219 242 264 276 273 273 286 292 285 278 270 251 228 212 198 185 179 174 172 172 173 176 179 179 177 176 180 179 173 174 178 180 182 186 189 190 194 196 205 213 216 226
201 208 228 252 274 273 297 339 326 305 301 291 271 240 214 207 199 187 182 175 173 173 173 178 181 181 179 178 179 179 178 180 184 185 186 188 189 193 199 202 204 212 232 221